FW2498 Weather Reports


Display with metric or nautical units.
time (UTC)temp
F
wind
direction
speed
MPH
gust
MPH
rain 1hr
in
rain 24hr
in
rain mn
in
humidity
%
barometer
mb
20260506160103 43 306 8.0 17.0 0.00 0.00 0.00 30 1021.3
20260506154602 42 255 7.0 16.0 0.00 0.00 0.00 34 1021.6
20260506153051 41 266 6.0 13.0 0.00 0.00 0.00 36 1021.5
20260506151546 40 245 7.0 12.0 0.00 0.00 0.00 38 1021.5
20260506150042 39 218 5.0 13.0 0.00 0.00 0.00 41 1021.7
20260506144539 38 268 8.0 11.0 0.00 0.00 0.00 41 1021.7
20260506143034 36 263 3.0 8.0 0.00 0.00 0.00 45 1021.8
20260506141529 34 236 3.0 8.0 0.00 0.00 0.00 48 1021.9
20260506140025 33 204 3.0 5.0 0.00 0.00 0.00 50 1022.1
20260506134520 32 223 3.0 6.0 0.00 0.00 0.00 52 1022.1
20260506133021 30 240 3.0 5.0 0.00 0.00 0.00 54 1022.1
20260506131519 28 245 3.0 5.0 0.00 0.00 0.00 56 1022.2
20260506130010 26 245 1.0 3.0 0.00 0.00 0.00 61 1022.2
20260506124506 24 245 0.0 3.0 0.00 0.00 0.00 63 1022.2
20260506123002 23 245 2.0 4.0 0.00 0.00 0.00 63 1022.0
20260506121605 22 245 0.0 5.0 0.00 0.00 0.00 63 1022.0
20260506120109 21 245 0.0 4.0 0.00 0.00 0.00 62 1022.0
20260506114608 22 245 4.0 6.0 0.00 0.00 0.00 61 1021.7
20260506113050 22 245 4.0 6.0 0.00 0.00 0.00 60 1021.8
20260506111552 22 250 2.0 5.0 0.00 0.00 0.00 60 1021.6
20260506110046 22 250 3.0 5.0 0.00 0.00 0.00 60 1021.6
20260506104547 23 250 2.0 5.0 0.00 0.00 0.00 60 1021.6
20260506103044 23 250 5.0 8.0 0.00 0.00 0.00 59 1021.6
20260506101540 24 250 4.0 6.0 0.00 0.00 0.00 57 1021.6
20260506100040 25 258 2.0 4.0 0.00 0.00 0.00 58 1021.4
20260506094541 25 250 5.0 8.0 0.00 0.00 0.00 57 1021.4
20260506093055 26 260 3.0 5.0 0.00 0.00 0.00 55 1021.4
20260506091528 27 273 3.0 5.0 0.00 0.00 0.00 51 1021.4
20260506090025 29 312 3.0 4.0 0.00 0.00 0.00 47 1021.4
20260506084524 31 320 3.0 5.0 0.00 0.00 0.00 47 1021.4
20260506083023 30 320 3.0 4.0 0.00 0.00 0.00 48 1021.4
20260506081520 30 321 1.0 3.0 0.00 0.00 0.00 47 1021.4
20260506073015 32 310 8.0 10.0 0.00 0.00 0.00 43 1021.6
20260506071512 32 319 8.0 9.0 0.00 0.00 0.00 42 1021.6
20260506061502 34 307 4.0 7.0 0.00 0.00 0.00 40 1021.4
20260506044608 35 312 8.0 9.0 0.00 0.00 0.00 41 1021.2
20260506043056 35 302 6.0 7.0 0.00 0.00 0.00 41 1021.2
20260506041607 35 306 5.0 8.0 0.00 0.00 0.00 42 1021.2
20260506040058 36 316 6.0 9.0 0.00 0.00 0.00 42 1021.1
20260506034556 37 325 7.0 9.0 0.00 0.00 0.00 41 1021.0
20260506033055 38 329 7.0 9.0 0.00 0.00 0.00 40 1021.1
20260506031551 39 337 7.0 9.0 0.00 0.00 0.00 39 1020.9
20260506030049 41 343 7.0 9.0 0.00 0.00 0.00 40 1020.8
20260506024548 41 335 6.0 9.0 0.00 0.00 0.00 40 1020.7
20260506023053 42 325 5.0 8.0 0.00 0.00 0.00 39 1020.4
20260506021545 42 327 6.0 10.0 0.00 0.00 0.00 38 1020.5
20260506020113 43 320 6.0 10.0 0.00 0.00 0.00 38 1020.3
20260506014545 43 314 10.0 12.0 0.00 0.00 0.00 37 1020.1
20260506013043 43 333 9.0 13.0 0.00 0.00 0.00 38 1020.0
20260506011547 43 315 12.0 18.0 0.00 0.00 0.00 37 1020.0
20260506010042 43 323 13.0 16.0 0.00 0.00 0.00 36 1020.0
20260506004544 43 333 12.0 18.0 0.00 0.00 0.00 37 1020.0
20260506003041 43 329 11.0 16.0 0.00 0.00 0.00 37 1020.0
20260506001547 43 329 13.0 17.0 0.00 0.00 0.00 37 1020.0
20260506000055 43 310 14.0 23.0 0.00 0.00 0.00 37 1020.0
20260505234542 43 346 13.0 23.0 0.00 0.00 0.00 38 1020.0
20260505233037 44 335 14.0 21.0 0.00 0.00 0.00 36 1019.8
20260505231538 44 323 14.0 23.0 0.00 0.00 0.00 37 1019.8
20260505230044 43 343 18.0 22.0 0.00 0.00 0.00 37 1019.7
20260505224544 43 327 13.0 22.0 0.00 0.00 0.00 36 1019.7
20260505223039 43 339 14.0 22.0 0.00 0.00 0.00 36 1019.7
20260505221536 44 350 18.0 23.0 0.00 0.00 0.00 36 1019.6
20260505220032 43 332 19.0 23.0 0.00 0.00 0.00 37 1019.7
20260505214531 43 309 12.0 21.0 0.00 0.00 0.00 38 1019.8
20260505213031 42 316 13.0 25.0 0.00 0.00 0.00 38 1019.9
20260505211539 43 323 16.0 23.0 0.00 0.00 0.00 39 1019.9
20260505210028 43 325 17.0 26.0 0.00 0.00 0.00 38 1020.0
20260505204524 42 309 15.0 24.0 0.00 0.00 0.00 40 1020.1
20260505203023 41 347 14.0 19.0 0.00 0.00 0.00 40 1020.1
20260505201522 41 305 14.0 23.0 0.00 0.00 0.00 39 1020.4
20260505200122 41 339 16.0 24.0 0.00 0.00 0.00 39 1020.3
20260505194520 41 336 14.0 23.0 0.00 0.00 0.00 39 1020.5
20260505193017 41 317 14.0 24.0 0.00 0.00 0.00 40 1020.4
20260505191519 41 309 12.0 18.0 0.00 0.00 0.00 41 1020.2
20260505190016 40 350 12.0 25.0 0.00 0.00 0.00 41 1020.2
20260505184514 40 330 13.0 21.0 0.00 0.00 0.00 42 1020.3
20260505183014 39 333 11.0 23.0 0.00 0.00 0.00 43 1020.2
20260505181512 39 349 17.0 22.0 0.00 0.00 0.00 42 1020.3
20260505180010 38 300 15.0 22.0 0.00 0.00 0.00 43 1020.3
20260505174609 38 350 13.0 27.0 0.00 0.00 0.00 43 1020.3
20260505173008 38 318 13.0 25.0 0.00 0.00 0.00 44 1020.3
20260505171514 39 336 14.0 23.0 0.00 0.00 0.00 43 1020.1
20260505170008 38 333 16.0 28.0 0.00 0.00 0.00 42 1020.1
20260505164505 38 339 16.0 24.0 0.00 0.00 0.00 41 1019.9
20260505163009 37 300 13.0 21.0 0.00 0.00 0.00 45 1020.1
20260505161502 38 319 18.0 22.0 0.00 0.00 0.00 44 1019.9